GPS BIII-9 (PRN 20)

Last updated on Wed Aug 19 2026 00:03:21 GMT+0000 (Coordinated Universal Time)

1 67588U 26017A 26229.02199474 -.00000038 00000+0 00000+0 0 9997 2 67588 55.1290 86.3133 0020878 261.6358 98.2023 2.00569725432838
UTC large
Height (km)
Speed (km/s)
/
Latitude / Longitude
Inclination (degrees)
Orbital Period (minutes)
Azimuth
Elevation
Range (km)
Doppler Factor

Next 0 passes for location: London (51.5072 / 0.1276)

No passes found over London.
GPS BIII-9 (PRN 20)